Wind_Speed
11 11 10 11 12 10 9 7 4 5 5 5 5 6 6 6 6 5 6 8 9 11 13 14 18 23 26 27 27 26 25 22 21 22 23 23 23 24 27 28 28 27 26 25 24 24 23 22 21 20 20 19 18 17 16 14 13 12 10 9 8 8 9 9 10 10 11 12 12 11 10 10 10 11 11 11 12 12 12 12 13 13 15 16 17
15 14 11 12 13 11 9 7 6 7 7 6 7 7 8 8 7 5 6 7 7 9 12 14 15 19 22 25 26 27 27 24 22 22 22 22 22 23 25 27 28 27 26 25 24 24 23 23 22 21 20 19 19 18 17 16 14 13 12 10 9 9 10 10 11 11 12 12 11 11 10 10 10 10 11 11 11 12 12 12 12 13 13 14 15
16 17 14 14 14 11 10 9 8 8 8 7 8 9 9 9 8 6 6 7 7 8 11 13 14 16 18 22 26 27 27 25 23 22 22 22 21 22 23 25 27 27 26 25 25 25 24 23 23 22 21 20 19 19 18 17 15 14 13 12 11 11 11 11 12 12 12 12 11 10 10 10 10 10 11 11 11 12 12 12 12 12 12 12 13
17 18 14 15 15 12 11 11 10 10 10 10 10 11 11 10 9 8 8 9 9 9 10 11 13 14 15 18 23 26 27 26 24 23 23 22 22 22 23 24 26 27 26 26 25 25 25 24 23 22 21 21 20 19 19 18 17 16 14 13 13 12 12 12 13 13 14 13 13 11 11 10 11 11 11 12 12 12 12 12 12 12 12 12 12
18 18 15 16 16 13 12 13 12 11 11 12 13 14 14 12 12 11 9 9 10 11 12 13 13 13 13 15 19 24 27 28 26 24 23 23 24 23 24 25 25 27 27 27 26 26 25 24 24 23 22 21 20 20 19 19 18 17 16 15 15 14 13 14 14 14 15 15 15 14 13 12 12 12 12 12 12 12 13 13 13 13 13 12 12
17 16 16 17 17 13 13 13 13 12 12 13 14 15 16 15 13 13 11 9 10 11 12 14 13 12 13 14 16 19 24 28 29 28 26 25 25 24 24 24 23 24 26 27 27 26 26 25 24 23 23 22 21 21 20 20 19 19 18 17 17 16 15 15 16 16 16 17 17 16 16 15 14 13 13 13 13 13 13 14 14 14 14 13 13
16 15 15 17 17 14 13 13 14 15 14 12 13 15 16 16 15 14 12 10 10 11 11 12 13 12 12 13 15 17 20 24 27 30 29 27 27 25 25 25 23 23 24 26 27 27 27 26 25 25 24 23 22 22 21 21 21 21 20 19 18 17 17 17 18 18 18 18 18 19 18 17 16 15 15 14 14 14 14 14 14 14 15 15 14
19 17 17 18 16 13 14 14 15 17 16 13 13 15 16 17 17 16 15 14 12 11 10 10 12 13 13 13 14 16 18 21 24 28 29 28 28 27 26 27 27 26 24 23 25 27 28 27 26 26 25 25 24 23 22 22 22 22 22 21 20 19 19 19 20 20 20 20 20 20 20 19 18 17 17 16 15 15 15 15 15 15 15 15 15
21 20 19 19 18 16 16 16 16 18 18 16 15 16 17 18 18 18 18 16 15 13 11 10 10 13 15 16 15 15 17 20 22 25 28 30 31 29 27 27 28 29 28 25 25 26 27 28 28 27 27 26 26 25 24 24 24 24 24 23 22 21 21 21 22 22 22 22 22 22 21 21 20 19 19 18 17 17 16 16 16 16 16 16 16
22 22 21 21 20 19 18 17 18 18 19 18 18 18 18 18 18 19 20 18 16 13 12 11 10 11 14 16 17 18 18 19 21 23 26 30 32 31 29 28 28 29 29 28 27 27 27 27 28 28 28 28 27 27 26 25 25 26 25 25 24 24 24 24 24 24 24 24 24 23 22 22 21 21 20 20 19 19 18 18 17 17 17 17 17
21 21 21 21 21 20 18 18 19 19 20 19 19 19 18 18 19 20 20 20 18 14 12 13 13 13 14 16 19 21 21 20 20 22 24 27 30 31 32 31 29 29 29 29 28 29 29 28 27 27 29 29 29 28 28 27 27 27 27 27 27 26 26 26 26 26 25 25 24 23 22 21 21 21 22 22 21 21 20 20 19 18 18 18 18
19 19 19 19 18 17 18 18 19 19 19 19 20 20 19 18 19 19 19 20 21 17 15 15 15 15 16 17 20 23 24 22 21 21 22 25 26 29 31 32 31 31 30 30 29 29 29 29 29 28 29 29 30 30 30 29 29 29 29 29 29 29 29 28 27 27 26 25 24 23 22 21 20 21 22 22 23 23 22 22 21 21 20 20 19
18 17 17 17 16 15 15 17 19 18 18 19 21 21 20 18 18 18 19 19 20 19 16 15 16 16 16 18 19 21 23 22 23 22 21 22 24 26 29 30 31 31 30 29 29 30 30 29 29 29 29 29 29 29 30 31 31 31 32 31 31 31 30 30 28 27 26 25 23 23 22 22 21 22 22 23 24 24 24 24 23 23 23 22 21
16 16 16 16 15 15 15 16 18 18 18 19 20 19 18 17 17 17 17 17 18 16 13 13 15 15 16 17 19 19 21 21 24 25 21 21 22 23 27 30 29 28 28 28 28 30 29 29 30 30 30 29 29 28 29 30 31 32 32 32 32 31 30 30 29 27 25 24 24 24 24 24 23 23 24 24 25 25 26 26 26 25 25 24 22
12 12 13 13 14 15 15 15 16 16 17 18 19 19 18 16 15 14 15 15 15 13 11 12 13 14 15 15 15 13 15 17 20 25 23 20 20 18 20 26 28 28 28 28 28 29 29 29 30 30 30 29 29 28 28 28 29 29 30 30 29 28 29 29 28 27 26 26 26 26 26 26 26 25 26 26 26 26 27 27 27 26 26 24 23
8 9 10 10 11 11 12 13 13 14 15 16 16 17 18 18 18 17 18 17 16 15 13 13 13 13 13 12 11 9 8 9 13 21 23 20 18 16 16 19 24 26 27 28 27 27 28 28 29 29 29 29 28 27 26 26 26 27 28 28 28 28 28 28 28 28 28 28 28 27 27 27 27 26 26 26 26 26 26 26 26 26 25 24 23
5 6 6 7 8 8 9 10 10 11 12 12 13 14 14 16 18 19 20 20 20 19 15 14 14 13 13 13 13 11 9 7 8 13 19 20 17 16 17 19 22 23 25 26 25 26 27 27 28 30 28 28 27 26 25 25 25 25 26 25 26 27 27 27 27 27 28 28 28 27 27 27 27 27 26 26 26 26 25 25 25 25 24 24 23
3 4 4 4 5 5 6 6 7 7 8 9 10 11 12 13 14 15 17 17 19 19 16 14 14 14 14 15 15 14 13 11 9 9 12 15 17 18 18 18 20 21 24 25 23 24 26 26 29 29 29 27 26 26 25 24 24 24 24 24 23 24 24 24 24 25 25 26 26 27 27 26 26 25 25 25 26 25 25 25 25 25 24 24 23
3 3 3 3 3 3 3 3 4 5 5 6 7 8 9 10 10 12 13 13 15 16 14 13 13 14 15 14 14 14 15 15 13 11 9 10 13 18 20 20 19 20 23 25 24 24 26 27 25 23 25 25 24 24 24 24 24 24 24 24 24 24 24 24 23 23 23 23 24 24 25 24 23 23 23 23 23 23 23 23 23 24 24 24 23
5 4 4 3 3 2 2 2 3 3 4 4 5 5 6 7 8 9 10 10 11 11 10 10 10 12 13 13 13 13 13 14 16 15 13 11 12 13 16 18 20 22 23 24 25 25 25 26 24 20 20 22 22 23 25 25 24 24 25 24 23 24 25 24 23 22 22 21 21 22 23 23 21 21 21 21 21 21 21 20 21 21 22 23 23
6 5 5 5 4 3 3 3 3 3 3 4 4 4 4 5 6 7 7 8 9 9 8 9 9 10 10 10 11 10 11 12 13 15 15 15 14 14 15 14 15 20 24 25 26 26 26 25 23 21 19 19 21 23 24 25 24 25 27 24 22 23 23 23 23 23 21 21 20 20 21 21 21 20 19 19 20 19 18 18 18 18 19 20 21
3 4 5 5 5 5 5 4 4 4 4 4 5 4 4 4 4 4 5 6 7 8 9 9 10 11 11 12 11 11 11 11 11 12 14 15 16 17 17 16 15 15 20 25 27 28 27 25 23 21 20 22 23 23 23 24 25 27 27 24 23 24 24 24 24 24 23 21 21 20 20 20 21 21 20 19 18 17 16 16 16 16 16 17 18
0 1 2 3 5 5 6 6 5 5 5 5 5 5 4 4 4 4 4 4 5 6 7 8 8 9 10 11 11 11 12 13 13 13 14 16 18 18 19 19 18 14 15 19 26 29 28 28 28 25 24 26 25 23 22 23 25 27 26 25 25 24 24 25 25 25 23 22 22 22 21 21 22 23 22 20 18 18 19 18 17 16 15 15 16
3 3 1 0 2 4 5 6 6 6 6 6 6 6 6 5 5 5 5 5 5 5 6 6 7 7 8 8 9 9 10 11 12 13 14 15 16 17 18 20 21 19 15 14 17 23 24 26 28 27 28 29 23 19 20 22 24 25 25 27 27 26 26 27 26 26 25 24 24 25 24 24 23 23 23 22 21 21 22 20 18 17 16 17 17
6 5 4 3 1 1 3 4 5 5 5 5 6 7 7 7 7 7 7 7 7 7 7 7 7 7 8 8 8 9 9 10 10 11 11 12 12 13 14 16 18 19 19 17 16 17 17 19 21 21 23 22 17 17 21 22 24 25 25 27 28 28 28 29 29 28 28 28 28 27 27 27 26 24 24 24 23 23 23 22 19 18 17 18 18
7 7 6 5 4 2 0 2 3 3 4 4 5 5 6 7 7 7 8 9 9 9 10 10 10 10 10 10 11 11 11 11 11 11 11 12 12 12 11 12 13 14 16 17 17 16 17 18 19 19 18 17 16 20 22 21 22 25 25 26 27 27 28 29 31 31 31 31 30 30 29 29 28 27 26 26 26 25 25 24 22 20 19 19 18
6 7 7 7 6 5 3 2 1 1 1 1 2 3 3 4 5 6 6 7 8 9 9 10 11 12 12 13 13 14 14 14 14 14 14 14 14 14 14 13 13 12 13 13 13 14 15 17 19 19 17 17 19 23 25 24 24 25 25 26 27 27 27 28 31 32 33 32 32 32 32 31 30 30 29 28 28 28 27 27 25 23 22 21 20
3 4 6 7 7 6 5 4 3 2 2 1 1 0 1 1 2 3 4 5 6 6 7 8 9 10 11 12 13 13 14 15 16 16 16 17 16 16 17 16 16 15 15 15 15 15 15 16 17 17 16 17 19 22 26 27 27 26 27 28 28 29 29 28 29 31 33 33 34 34 33 33 32 32 32 32 31 31 30 30 29 27 25 23 23
2 2 3 4 5 5 5 5 4 3 2 1 1 1 1 1 2 3 4 5 6 6 6 7 7 7 8 9 10 11 12 13 14 15 15 16 16 16 16 16 16 16 16 16 16 16 17 18 18 19 20 20 22 23 24 24 24 25 26 28 28 28 28 28 29 29 30 31 33 34 34 34 34 34 35 35 35 34 34 33 32 30 28 26 26
5 4 3 2 2 2 3 3 3 3 2 2 2 2 2 2 3 4 4 6 6 7 8 8 8 8 8 8 9 9 10 10 12 12 13 14 14 14 14 14 14 14 14 14 13 14 16 17 18 20 22 23 24 25 24 24 24 24 24 25 25 26 26 27 28 27 27 28 29 30 31 32 33 35 36 37 37 37 37 36 35 33 31 29 28
8 7 7 6 4 3 2 2 3 3 2 2 3 3 3 4 4 5 5 6 7 8 9 10 10 10 10 11 11 11 11 10 10 11 11 12 12 13 12 13 13 13 13 13 12 12 13 15 16 18 20 22 23 24 24 24 25 25 25 25 26 27 27 27 28 27 27 28 28 28 29 30 31 32 34 36 38 39 39 38 37 36 35 34 33
12 11 10 10 9 7 5 4 4 5 5 4 4 4 4 5 5 6 6 6 7 8 9 11 12 13 13 13 13 13 14 13 13 12 12 12 13 13 13 13 14 14 15 15 14 13 13 14 14 15 17 19 21 22 23 23 24 24 25 25 26 28 28 28 29 29 29 30 30 30 30 30 31 31 32 33 35 36 38 38 38 38 38 38 38
16 14 14 13 12 12 11 9 8 7 8 8 7 7 7 8 8 8 8 8 8 8 9 10 11 13 14 14 14 15 15 16 16 16 15 15 15 15 15 15 16 17 17 17 17 16 15 15 15 15 16 17 18 20 21 22 23 23 24 24 25 26 27 28 29 30 30 31 31 32 32 33 33 33 33 32 32 32 33 34 34 35 36 37 38
19 18 18 18 17 16 16 15 13 12 11 11 11 11 11 12 12 13 13 13 13 12 12 12 12 13 14 15 15 16 17 18 19 19 19 18 18 18 18 18 18 19 20 20 21 20 19 18 17 16 17 17 18 19 20 21 22 23 24 24 24 25 26 26 27 28 29 29 30 30 31 31 32 33 33 33 33 32 31 31 31 31 31 32 33
22 22 22 22 21 20 20 19 18 17 16 15 16 16 15 15 16 16 17 17 18 18 17 17 16 16 16 16 16 17 18 19 20 21 22 22 22 22 21 21 21 22 22 23 23 23 22 21 20 20 20 19 19 20 20 21 22 23 24 24 25 25 26 26 27 28 28 28 29 29 28 29 30 31 31 32 32 33 33 33 32 31 30 29 30
22 23 23 24 25 25 24 23 22 21 21 20 20 20 20 20 20 20 20 20 21 22 22 22 22 22 22 21 21 21 21 21 22 23 24 24 25 25 25 25 25 25 25 25 25 25 25 24 23 22 23 22 22 22 22 23 23 24 25 26 26 26 26 27 28 29 29 29 29 29 28 28 30 30 30 31 31 32 33 33 34 34 33 32 31
26 27 26 25 27 28 28 27 26 24 23 23 23 23 24 24 24 25 24 23 24 25 25 26 26 27 27 27 27 27 26 25 24 24 24 25 26 27 27 27 28 28 28 28 28 28 28 27 26 25 25 25 26 25 25 25 25 25 26 27 28 28 28 28 29 30 31 30 30 30 30 29 29 30 31 31 31 31 32 33 34 35 35 34 34
30 32 32 29 29 30 29 29 29 27 26 25 26 26 27 26 27 28 28 28 28 28 28 28 28 28 29 30 31 31 30 29 28 26 26 26 26 27 28 29 29 30 30 31 31 31 31 31 30 29 28 27 27 27 27 27 27 27 27 28 29 29 29 29 29 30 31 31 31 31 31 30 30 30 31 32 32 32 33 33 33 34 34 35 35
31 33 36 35 32 30 29 30 32 31 30 29 29 30 30 29 29 30 31 31 31 31 30 30 30 29 30 32 32 32 32 31 31 30 28 28 27 27 28 29 30 30 31 32 32 33 34 33 33 33 31 30 30 29 29 29 29 29 29 30 30 30 31 32 32 31 32 32 32 32 32 31 30 30 31 33 34 34 34 34 35 34 34 34 34
31 32 36 39 36 31 30 32 34 35 34 33 33 34 33 32 32 32 33 33 33 33 32 31 31 31 31 32 32 32 32 33 33 33 33 32 30 29 29 30 31 32 32 33 34 34 35 35 35 35 35 34 33 32 32 32 32 32 32 33 32 31 31 32 33 34 34 35 34 34 34 33 32 31 31 32 34 35 36 36 36 36 36 35 34
31 31 34 38 38 33 31 35 37 38 38 39 38 37 35 34 35 35 36 36 35 35 34 33 32 31 32 33 34 35 35 35 36 36 36 36 35 32 30 30 31 32 33 34 35 36 36 37 37 37 37 36 36 35 35 35 35 34 35 35 35 34 34 33 33 34 35 36 36 36 36 35 35 34 33 32 33 34 36 37 37 37 37 36 36
30 30 31 34 36 33 33 38 40 40 41 43 42 40 37 36 38 38 37 37 37 36 36 35 34 33 33 35 37 39 38 37 36 37 38 39 38 35 33 32 33 34 34 35 35 36 38 38 38 38 38 38 37 37 37 38 38 37 37 37 37 37 36 36 35 34 34 36 37 37 36 35 35 36 36 36 35 35 36 37 38 38 38 38 37
32 31 31 32 32 32 35 39 40 40 43 44 44 43 41 40 41 40 39 39 39 38 38 37 36 35 37 38 40 41 39 37 36 38 39 38 37 36 36 35 35 35 36 36 36 37 38 39 40 40 40 39 38 38 39 40 40 40 40 40 40 39 38 38 37 36 35 36 37 38 37 36 36 36 37 37 37 38 38 37 37 37 38 39 39
36 35 33 32 32 32 34 35 36 39 43 45 45 46 45 43 43 43 42 42 42 40 38 36 36 38 40 41 41 40 39 37 38 40 40 39 38 37 37 37 36 36 36 37 38 38 39 40 41 41 41 41 41 41 41 41 42 42 42 42 42 41 41 40 39 38 37 37 39 39 38 37 36 36 37 36 36 38 40 40 38 37 37 38 40
38 38 37 36 35 35 36 34 34 39 41 39 39 41 41 41 42 42 42 42 40 38 36 36 37 39 40 40 40 39 39 40 40 41 41 41 40 39 39 38 38 37 36 36 37 38 39 41 42 41 41 42 43 43 43 43 44 44 44 45 44 44 43 42 42 40 39 38 40 40 40 38 37 37 38 37 36 37 40 41 40 38 36 37 39
37 37 37 37 37 37 38 36 37 41 40 34 31 33 35 37 38 38 39 40 38 36 37 39 40 39 38 38 38 39 41 43 43 43 42 41 40 40 40 40 39 39 38 38 37 37 38 39 41 41 42 43 45 45 44 44 45 46 47 47 47 46 45 44 44 42 41 40 40 41 41 40 39 39 39 39 38 38 41 43 42 38 36 37 38
34 35 35 35 35 35 35 35 37 41 39 32 31 33 34 35 36 36 38 38 37 37 39 40 39 38 37 37 38 40 42 43 44 43 42 39 38 38 38 38 39 40 40 40 40 39 39 39 40 41 42 43 45 45 45 45 46 47 48 48 48 48 48 47 46 44 42 41 41 43 44 42 40 40 40 41 40 40 42 46 45 41 38 37 38
31 32 32 33 33 33 33 33 36 39 35 30 31 34 35 36 37 37 37 37 37 38 39 38 37 37 37 38 39 42 43 43 43 42 40 37 37 37 38 39 40 41 42 42 42 42 41 41 41 43 43 44 44 45 45 46 47 48 48 48 48 48 48 48 49 47 45 43 42 44 45 44 43 43 42 42 43 42 43 47 48 46 42 39 38
31 31 32 31 30 30 32 33 36 37 33 30 32 35 36 38 38 37 36 36 36 38 38 38 38 38 38 40 41 42 42 41 41 41 39 38 38 40 41 42 43 43 44 44 44 44 44 44 44 44 44 44 44 44 45 46 48 48 49 49 48 48 48 49 49 49 48 46 45 46 46 44 44 45 44 44 45 44 45 47 49 49 48 44 41
32 31 32 31 29 28 30 33 36 35 31 29 33 36 36 37 37 35 34 35 36 38 40 41 40 40 40 41 41 40 39 39 39 40 40 40 40 42 43 45 45 46 46 46 46 46 47 47 47 46 46 45 44 44 45 46 47 48 50 50 50 49 49 49 50 50 49 48 48 49 48 46 46 47 47 46 47 46 46 48 49 51 52 49 44
32 32 32 32 29 28 31 35 35 33 30 30 34 36 36 36 35 34 34 35 37 39 41 41 41 40 41 41 40 39 38 39 40 41 42 43 43 44 45 46 47 47 48 48 47 48 49 49 49 49 48 47 46 46 46 46 46 47 49 50 50 50 50 50 50 51 50 49 49 50 50 49 49 50 50 49 48 48 47 48 49 51 54 52 48
Wind_Direction
240 245 247 249 254 250 244 239 196 174 190 198 198 210 221 221 213 206 203 206 214 219 225 229 225 220 215 215 215 213 213 217 221 222 227 232 235 232 228 230 233 233 232 232 233 234 235 236 237 238 239 241 243 246 247 243 241 241 244 251 264 280 290 299 307 315 323 332 339 345 351 354 355 355 354 354 356 360 3 5 9 12 14 16 18
238 243 249 251 252 253 249 243 220 197 198 206 209 215 219 221 219 209 193 200 220 225 223 222 223 225 222 219 219 220 220 219 220 223 227 232 236 236 232 231 232 233 232 232 233 234 234 235 235 236 237 237 238 240 243 241 239 238 241 248 259 273 285 293 300 308 316 325 334 340 345 351 354 354 352 349 349 350 354 357 360 3 7 10 12
246 247 250 256 254 251 249 241 227 213 208 212 217 219 218 219 221 223 220 221 232 232 223 217 218 224 227 225 224 224 225 223 223 226 229 232 235 239 238 235 234 233 232 232 232 233 233 234 235 236 236 236 235 235 238 240 239 237 240 246 255 267 278 287 295 302 309 316 324 330 335 342 349 351 350 348 346 345 346 348 351 353 356 1 5
249 249 246 255 255 249 249 244 234 227 221 218 220 221 221 225 233 243 245 240 241 237 220 211 214 221 227 233 231 229 228 226 226 228 232 234 236 239 242 240 237 235 234 233 233 233 233 233 234 234 235 235 234 233 234 237 238 237 239 244 251 261 272 280 287 294 301 308 314 318 320 326 334 340 342 344 344 343 342 340 341 343 346 351 356
248 250 244 250 254 247 246 248 246 243 234 227 226 228 231 238 247 252 253 247 242 236 223 214 216 217 222 232 235 232 230 228 227 227 232 236 237 241 243 242 239 236 235 235 234 234 233 233 233 233 234 235 234 233 233 235 238 238 240 243 249 256 266 274 279 286 292 298 304 308 310 312 317 322 327 332 337 339 339 338 336 335 336 340 345
246 249 245 250 256 251 247 247 249 249 242 236 235 235 238 245 251 252 252 249 238 231 224 217 216 215 218 225 229 233 232 230 229 227 229 233 235 238 241 242 242 239 237 236 235 235 234 233 232 232 233 234 234 234 234 235 237 240 242 244 248 255 262 268 274 279 284 289 294 298 302 305 307 310 313 318 323 328 332 334 334 332 331 331 333
245 247 248 253 256 254 252 248 246 246 243 240 240 240 242 245 249 250 248 244 235 226 219 215 217 217 221 224 223 228 233 233 231 230 231 233 234 234 236 239 242 242 241 238 236 236 235 234 233 233 232 232 233 234 235 236 238 241 244 246 249 254 258 264 270 275 279 283 285 289 293 297 300 302 304 308 312 316 321 325 328 330 328 327 326
249 252 256 259 259 253 252 252 249 247 248 247 242 242 244 244 245 246 243 239 235 228 220 218 220 220 223 227 222 223 232 234 233 232 232 234 235 234 236 237 238 241 243 242 240 237 236 234 233 233 233 233 233 234 235 237 240 242 244 248 250 253 256 262 268 272 276 280 281 283 286 288 291 294 297 300 304 307 312 316 319 323 325 324 323
251 255 261 265 265 256 251 253 253 250 250 252 250 246 245 245 244 244 243 240 234 226 227 230 225 224 226 228 226 223 227 231 232 232 232 232 234 236 238 239 238 238 240 242 244 243 239 236 234 234 233 234 234 235 237 238 242 244 246 249 251 253 256 261 266 269 273 277 280 282 283 283 283 285 288 293 298 300 304 307 310 314 318 320 320
253 255 259 263 264 259 254 254 254 251 250 253 255 253 248 246 244 244 247 245 234 221 224 234 235 234 231 231 233 231 227 227 230 231 230 231 232 235 238 239 238 237 238 240 241 244 244 241 237 236 235 236 237 237 239 240 243 246 249 251 252 254 257 261 264 268 272 276 279 281 281 280 279 279 282 286 291 294 297 300 302 304 309 313 314
257 259 260 261 263 264 261 256 253 251 251 253 255 254 248 245 245 244 246 248 243 236 234 238 243 246 241 239 242 241 234 228 228 229 229 230 230 234 238 239 240 239 239 239 240 242 244 245 243 241 240 238 239 240 241 243 244 247 250 253 255 256 259 261 264 267 271 274 278 279 279 279 278 277 278 281 285 288 290 293 296 296 299 304 306
258 260 262 262 263 266 266 261 255 253 255 257 258 255 248 244 247 245 245 248 248 246 243 244 248 253 254 253 251 249 242 230 227 226 227 231 230 232 237 240 240 241 240 240 240 241 242 245 246 246 245 243 243 243 244 246 247 249 251 253 256 258 260 263 265 268 271 273 275 276 277 278 278 277 277 278 281 284 286 289 291 291 293 297 298
257 259 263 264 263 263 265 264 260 258 260 259 256 253 248 244 246 248 250 252 251 245 243 252 260 265 270 269 265 261 254 241 231 224 220 226 231 232 235 238 238 237 239 240 240 240 242 245 246 247 249 249 249 247 247 248 250 252 254 255 257 259 262 265 267 269 271 273 274 274 276 277 278 278 278 279 280 282 284 286 288 288 290 291 292
257 259 261 264 264 263 263 265 263 261 260 259 257 256 256 249 243 243 248 250 248 243 245 258 267 274 278 276 274 273 269 258 239 226 215 216 226 228 228 229 232 234 236 238 239 241 244 246 246 247 249 250 252 253 253 252 253 255 256 258 260 261 263 266 267 269 270 272 273 274 276 278 279 280 280 280 280 281 282 284 286 287 287 287 287
257 258 260 261 262 263 262 263 264 262 261 262 263 263 264 260 250 246 250 250 248 250 259 266 271 280 280 274 277 283 284 273 244 226 215 211 220 230 228 225 228 234 236 237 239 241 243 246 247 247 248 250 253 256 257 257 258 258 258 258 261 263 265 265 266 267 269 271 273 275 277 279 280 280 280 280 280 280 282 283 284 285 285 284 283
255 257 260 260 260 261 261 260 261 262 263 263 264 264 265 266 264 262 263 265 267 270 273 275 278 284 280 272 279 296 304 288 248 227 217 216 225 230 227 224 226 231 233 234 236 238 240 242 245 247 247 248 251 253 255 257 260 261 261 261 262 264 265 265 266 269 271 272 273 275 276 278 279 280 280 280 280 281 281 283 283 284 284 282 280
252 256 260 261 261 259 258 257 256 254 256 259 261 263 264 264 266 265 266 268 273 277 278 277 281 282 278 277 281 286 286 277 261 237 222 225 233 224 219 224 227 227 229 232 234 236 238 240 244 246 247 247 247 249 251 254 259 263 264 265 265 265 266 268 270 272 272 274 275 276 277 278 279 279 279 279 280 280 280 281 281 282 281 280 277
256 259 258 260 263 258 253 253 252 248 246 249 252 254 255 258 264 267 268 266 268 274 278 277 278 276 274 278 280 277 272 265 262 253 234 234 238 229 228 234 234 231 228 230 232 234 237 238 238 237 239 243 245 246 248 250 255 260 263 264 265 266 268 271 273 274 275 276 278 279 279 280 281 281 280 279 278 279 279 279 279 278 278 278 276
272 270 262 265 264 258 254 241 241 244 240 241 245 251 256 258 258 260 265 267 266 269 274 273 270 269 269 273 276 274 272 267 260 257 255 258 250 240 242 245 240 236 232 231 232 233 236 239 237 231 230 237 243 247 248 248 250 254 259 261 263 266 269 271 273 274 275 275 277 280 282 282 282 281 280 279 278 278 277 277 277 277 276 275 275
272 269 263 265 264 262 265 246 237 237 234 237 244 250 256 258 255 255 262 266 266 266 267 269 268 268 268 267 269 270 270 269 267 261 257 265 265 256 257 255 243 236 234 237 237 233 235 240 243 240 235 234 239 244 243 242 246 251 254 255 257 263 268 270 271 272 272 274 277 280 282 284 284 283 282 282 282 281 279 278 277 276 276 275 275
268 263 258 257 257 259 261 258 254 245 243 245 249 249 248 252 255 256 259 257 257 258 255 257 259 260 262 257 256 257 257 263 267 260 254 256 259 259 265 270 258 242 235 236 238 235 233 236 240 242 238 232 236 243 240 238 243 249 252 254 254 257 262 266 269 270 272 274 276 277 280 284 286 287 288 289 291 289 284 280 277 277 278 278 277
268 262 258 254 253 254 253 255 254 253 255 255 257 261 254 250 251 249 250 247 246 246 246 248 249 249 250 249 248 245 243 247 250 248 248 251 252 253 255 262 270 263 248 239 237 236 236 238 242 244 239 235 241 251 250 246 248 252 255 259 257 255 256 260 264 268 271 272 274 276 277 280 283 285 289 292 293 291 290 291 289 285 283 281 280
51 279 265 260 258 256 254 255 254 254 257 260 265 270 270 265 261 255 247 241 239 239 240 242 243 244 246 247 247 245 243 244 247 248 249 249 248 250 251 250 255 266 268 254 242 239 240 242 247 247 241 237 241 253 258 255 256 257 259 261 258 255 255 257 261 265 267 269 271 272 274 276 278 281 285 288 287 286 290 297 299 296 292 290 286
95 90 86 275 261 260 259 258 258 258 257 262 266 271 276 274 270 270 266 257 251 247 245 243 241 241 242 243 242 242 243 245 249 252 253 255 254 253 253 251 251 254 264 271 257 247 246 248 250 250 244 241 242 254 261 261 262 262 262 263 262 259 258 259 261 263 265 267 269 270 272 273 275 277 280 283 284 285 289 292 294 295 295 297 294
94 90 89 82 72 260 260 259 260 262 261 264 269 271 275 277 276 275 274 272 267 262 259 254 250 247 244 244 243 241 243 245 248 250 251 256 258 257 256 254 253 253 256 264 269 264 262 264 265 261 256 252 252 261 264 264 265 265 263 263 265 264 261 260 261 262 264 266 269 271 273 275 275 276 277 279 281 283 286 287 287 288 290 295 296
93 85 82 79 70 62 10 271 264 265 266 264 267 271 274 278 280 279 276 275 273 270 268 265 261 259 255 254 254 252 252 252 253 252 253 256 257 257 259 257 253 253 254 255 259 261 261 264 268 267 264 260 255 256 261 264 263 262 262 262 264 265 263 262 261 261 262 265 268 271 273 275 276 276 276 278 280 282 283 284 282 282 284 289 293
91 85 79 77 72 64 57 43 24 325 299 279 268 267 271 278 284 288 290 287 286 283 280 277 273 269 266 263 262 261 262 262 262 262 261 262 263 262 261 260 256 252 252 252 253 254 251 250 252 254 254 252 251 251 255 258 259 260 263 264 263 264 264 263 262 262 261 263 266 268 270 272 273 274 276 278 279 281 282 282 281 279 281 285 289
73 80 79 77 75 70 64 57 51 44 41 22 348 326 288 306 314 315 319 320 318 314 306 300 293 287 281 275 272 270 268 267 267 268 268 267 268 269 268 267 265 260 257 256 255 256 255 252 250 249 246 247 251 252 253 255 257 260 262 263 263 264 264 264 264 263 262 262 263 265 268 269 270 272 274 275 277 278 279 280 280 278 279 282 286
317 6 57 73 76 74 70 65 63 54 49 44 27 20 14 10 357 349 345 342 341 339 333 327 319 311 303 293 286 281 277 275 273 271 272 271 269 269 269 269 268 266 262 258 256 256 257 257 255 255 254 253 255 259 261 262 262 262 262 262 264 265 267 268 267 266 265 264 264 265 265 267 268 269 271 272 274 276 276 277 277 277 277 278 280
273 290 305 337 33 60 59 53 55 54 42 27 10 355 360 360 349 346 342 339 337 334 333 332 329 326 321 313 304 295 287 281 279 277 275 274 274 271 270 270 269 269 266 261 258 256 255 255 256 258 260 261 262 264 266 267 267 266 265 265 264 265 267 268 268 268 269 268 267 266 266 267 267 268 268 269 270 271 272 273 274 275 275 275 276
261 269 281 292 300 306 333 348 352 5 9 1 356 350 349 347 342 341 338 336 334 330 328 326 324 323 322 320 317 310 304 294 286 282 278 276 275 272 271 269 268 267 267 265 261 259 259 256 256 259 261 263 266 267 268 267 267 267 267 267 266 266 267 268 270 271 271 271 270 269 269 269 269 269 268 268 267 267 268 269 270 271 271 272 273
258 261 267 274 279 283 285 288 299 311 316 318 322 324 327 327 326 328 329 331 331 328 325 322 320 318 316 315 314 311 309 305 298 291 286 282 279 275 273 272 270 268 268 267 264 263 267 267 265 265 266 266 268 271 271 271 270 270 269 268 267 267 269 270 271 272 272 272 273 273 273 273 273 272 271 270 269 268 267 266 266 267 267 269 270
261 262 266 266 268 274 278 280 280 286 295 300 304 305 309 311 312 314 315 317 319 319 317 317 316 315 313 311 309 307 305 303 300 296 291 286 282 279 277 275 275 274 272 272 270 267 269 272 273 272 273 273 273 273 274 274 274 274 272 271 270 269 270 269 270 272 272 273 273 274 274 273 273 272 271 271 270 270 269 268 267 266 266 266 267
268 269 270 268 268 270 272 275 276 277 281 286 292 296 299 302 304 307 310 311 313 314 313 312 311 312 313 312 310 310 308 305 302 299 295 290 285 281 279 276 275 274 273 273 272 271 269 270 272 273 274 275 276 277 277 277 276 274 274 273 272 271 271 270 270 270 271 271 272 272 272 272 272 272 271 271 271 271 270 270 270 269 268 267 267
269 270 271 271 272 271 270 272 273 274 276 278 283 287 290 294 296 299 303 306 310 312 311 312 312 312 312 311 311 312 311 310 307 302 298 294 290 285 282 280 277 276 275 274 273 273 271 270 271 273 275 275 276 278 279 278 277 276 275 274 273 272 272 272 272 271 271 271 271 272 273 273 273 273 273 273 272 272 271 271 271 271 270 269 268
263 266 268 269 272 272 272 272 272 273 275 276 278 280 283 287 289 290 294 297 301 305 306 307 307 308 309 308 307 308 308 309 308 305 301 297 294 290 287 284 282 280 279 278 278 277 275 274 273 275 276 277 278 280 280 279 277 276 276 275 274 273 272 273 273 273 273 274 274 275 275 274 274 275 276 275 274 274 274 273 272 272 271 270 269
260 263 264 265 269 272 273 275 276 277 278 277 276 277 278 281 283 286 288 290 293 297 300 302 302 302 303 304 304 303 302 303 303 302 300 298 295 293 290 287 285 284 283 282 281 281 279 278 277 276 276 277 278 279 280 279 278 277 276 276 275 274 272 271 271 272 273 274 275 276 276 275 274 275 276 277 276 275 274 273 272 272 271 271 270
260 264 266 265 266 270 273 275 277 279 279 278 277 275 276 276 278 280 283 285 288 291 295 297 298 299 299 300 301 300 299 299 299 297 296 295 294 292 290 288 287 285 284 284 283 283 282 281 280 279 277 276 276 277 278 278 277 277 276 276 276 276 276 274 273 273 274 274 274 274 276 276 276 276 277 278 278 277 275 274 273 272 271 270 270
257 261 263 262 262 264 267 272 277 279 278 276 275 275 275 273 273 276 279 281 283 286 290 294 295 296 297 297 298 297 296 295 295 294 292 291 291 290 288 286 285 284 283 283 282 282 282 282 281 280 279 278 277 276 277 277 276 276 276 275 274 275 277 277 277 277 277 277 277 277 278 277 276 276 275 276 278 278 277 276 275 275 273 272 271
256 258 259 258 257 258 259 265 273 276 276 277 276 274 274 273 273 274 276 278 280 282 285 289 292 294 295 296 296 297 296 294 291 291 291 290 288 288 288 286 284 283 282 281 280 280 280 280 280 280 279 279 278 277 277 277 276 277 277 277 277 276 275 275 276 277 278 278 279 279 279 280 280 279 276 275 275 276 277 277 277 276 276 275 274
257 259 259 256 256 257 258 262 268 272 274 276 277 275 276 278 278 276 274 275 279 282 283 284 287 290 293 296 297 297 297 294 290 288 290 290 286 284 285 286 284 282 281 281 280 279 279 278 278 278 278 277 278 277 276 275 275 275 275 277 278 277 276 275 274 274 274 275 276 275 276 278 280 281 281 279 277 275 275 277 277 277 276 275 275
259 260 262 260 259 261 261 262 265 267 268 272 276 277 279 280 279 278 276 275 278 281 282 282 283 286 291 295 297 296 295 292 289 288 290 291 287 281 280 284 285 282 279 279 278 278 278 278 278 277 276 276 276 277 276 276 275 275 274 275 276 276 277 277 275 273 272 271 271 271 272 273 274 277 279 281 281 279 276 275 275 276 276 276 275
262 261 263 264 264 264 263 262 261 261 264 271 276 276 275 276 275 276 278 277 276 279 281 280 281 285 290 294 296 295 292 288 287 288 290 291 287 281 278 282 286 284 281 280 278 276 275 276 276 277 277 277 276 276 276 276 276 276 276 276 276 276 276 276 276 275 274 272 270 270 270 270 270 272 274 276 279 280 280 278 276 275 274 275 275
261 262 263 264 264 264 264 263 262 262 267 273 274 272 271 273 274 275 278 277 275 276 277 276 278 285 289 293 294 292 290 288 287 288 289 290 287 282 278 280 282 282 281 281 280 278 276 275 275 276 277 278 278 277 277 277 277 277 277 277 277 277 277 277 277 276 275 273 272 272 272 272 271 272 274 275 275 276 278 280 279 278 275 274 273
261 262 261 262 263 265 265 265 266 267 270 274 275 273 271 271 271 273 274 274 273 273 273 273 278 283 287 290 290 288 288 289 289 289 289 289 288 285 282 280 280 278 276 276 277 276 275 275 275 276 277 279 278 278 278 279 279 279 279 279 278 278 277 277 278 277 276 274 273 273 274 274 274 274 274 274 273 273 274 276 276 277 277 274 272
264 265 264 264 264 265 264 265 266 266 268 273 276 273 270 268 267 268 268 269 269 270 271 275 280 284 285 284 284 285 287 289 290 290 289 290 289 288 286 284 282 280 277 276 276 276 274 274 274 275 276 276 276 277 278 279 280 281 281 280 279 279 279 278 278 277 277 276 275 274 274 273 273 274 274 274 273 271 272 274 274 273 273 272 270
267 269 270 269 268 267 267 268 267 267 268 272 273 271 269 267 266 265 265 266 266 268 272 277 281 283 281 279 280 283 286 288 289 289 290 291 291 291 290 288 286 284 283 283 283 282 280 278 276 275 274 273 273 274 275 276 278 280 280 280 280 280 280 280 280 279 278 277 277 277 277 276 276 275 275 276 274 271 270 273 273 272 270 269 268
269 270 270 271 272 271 270 268 267 269 270 272 272 270 268 266 265 265 265 265 266 268 273 278 280 279 277 278 281 285 286 286 286 286 288 291 294 294 293 292 289 287 287 287 288 287 285 283 281 278 277 276 275 274 274 275 276 278 279 278 278 279 280 280 281 281 280 278 277 276 277 278 278 278 277 276 275 274 272 272 273 273 271 269 266
272 271 271 272 271 269 267 266 266 268 270 270 270 270 267 266 265 265 264 266 268 271 276 279 279 277 276 279 282 284 284 285 285 285 288 294 296 296 295 293 292 291 290 291 291 290 288 285 282 281 280 280 279 279 278 278 278 279 279 277 278 279 279 279 279 280 280 280 279 277 276 277 278 277 277 276 274 273 272 271 272 273 273 270 267
274 273 272 271 270 268 266 263 263 266 269 268 267 267 267 265 263 262 263 267 269 273 277 278 279 279 280 281 282 282 281 283 285 288 292 296 296 295 294 293 293 293 293 293 292 291 289 287 286 285 283 282 281 280 279 279 279 280 279 279 279 279 279 278 278 278 278 278 279 279 278 278 277 276 275 274 273 272 270 269 270 272 272 270 267
276 275 272 271 271 267 263 261 262 265 266 264 263 264 264 264 263 263 265 268 270 273 276 276 278 281 283 284 283 282 282 285 288 291 294 295 294 293 293 293 293 292 292 291 290 289 289 288 287 287 286 285 283 281 279 278 277 277 278 278 279 279 278 277 277 276 276 276 277 277 277 277 276 275 275 274 273 272 271 270 270 270 270 270 268
Height
3140 3141 3142 3143 3143 3144 3143 3143 3144 3145 3146 3146 3147 3147 3148 3148 3149 3150 3151 3151 3151 3152 3152 3153 3154 3155 3157 3159 3160 3162 3163 3164 3165 3166 3167 3167 3167 3167 3168 3169 3171 3172 3173 3174 3175 3176 3177 3178 3179 3180 3180 3181 3182 3182 3183 3184 3184 3184 3185 3185 3185 3185 3185 3185 3185 3185 3185 3185 3185 3185 3184 3184 3184 3183 3182 3182 3181 3181 3180 3179 3178 3178 3177 3176 3175
3140 3140 3141 3142 3142 3143 3143 3143 3144 3145 3145 3146 3147 3147 3148 3148 3149 3150 3151 3151 3151 3152 3152 3153 3154 3155 3156 3158 3159 3161 3162 3163 3164 3165 3166 3166 3166 3166 3167 3168 3169 3170 3171 3172 3173 3174 3175 3176 3177 3178 3179 3180 3180 3181 3182 3182 3183 3183 3184 3184 3184 3184 3184 3184 3184 3184 3184 3185 3185 3184 3184 3184 3184 3183 3183 3182 3181 3181 3180 3179 3179 3178 3178 3177 3176
3139 3140 3141 3141 3141 3142 3143 3143 3144 3144 3145 3146 3146 3147 3147 3148 3149 3150 3150 3151 3151 3151 3152 3153 3153 3154 3155 3157 3158 3159 3161 3162 3163 3164 3165 3165 3165 3165 3166 3167 3168 3169 3170 3171 3172 3173 3174 3175 3176 3176 3177 3178 3179 3180 3180 3181 3182 3182 3183 3183 3183 3183 3183 3184 3184 3184 3184 3184 3184 3184 3184 3183 3183 3183 3183 3182 3181 3181 3180 3180 3179 3178 3178 3177 3177
3138 3140 3141 3140 3140 3142 3142 3143 3143 3144 3144 3145 3146 3146 3147 3147 3148 3149 3149 3150 3150 3151 3151 3152 3152 3153 3154 3156 3157 3158 3159 3160 3162 3163 3163 3164 3164 3164 3164 3166 3167 3167 3168 3169 3170 3171 3172 3173 3174 3175 3176 3177 3177 3178 3179 3180 3181 3181 3182 3182 3182 3182 3183 3183 3183 3183 3183 3183 3183 3183 3183 3183 3183 3183 3182 3182 3181 3181 3180 3179 3179 3178 3178 3177 3177
3137 3139 3140 3139 3140 3142 3142 3142 3142 3143 3144 3144 3145 3145 3146 3146 3147 3147 3148 3149 3149 3150 3150 3150 3151 3152 3153 3154 3155 3156 3157 3159 3160 3161 3162 3163 3163 3163 3163 3164 3165 3166 3167 3167 3168 3169 3170 3171 3172 3173 3174 3175 3176 3177 3178 3179 3179 3180 3181 3181 3181 3181 3182 3182 3182 3182 3182 3182 3182 3182 3182 3182 3182 3182 3182 3182 3181 3181 3180 3179 3179 3178 3178 3177 3177
3136 3137 3138 3138 3139 3141 3141 3141 3142 3142 3143 3143 3144 3144 3145 3145 3146 3146 3146 3147 3148 3148 3149 3149 3150 3150 3151 3152 3153 3154 3155 3156 3158 3159 3160 3161 3162 3162 3162 3163 3163 3164 3165 3166 3166 3167 3168 3169 3170 3171 3172 3173 3174 3175 3176 3177 3178 3179 3179 3180 3180 3180 3181 3181 3181 3181 3181 3181 3181 3181 3181 3181 3181 3181 3181 3181 3181 3180 3180 3179 3179 3178 3178 3177 3177
3134 3134 3136 3137 3139 3139 3139 3140 3141 3141 3141 3142 3143 3143 3144 3144 3144 3144 3145 3145 3146 3146 3147 3148 3149 3149 3150 3150 3151 3152 3153 3154 3155 3156 3158 3159 3160 3160 3161 3162 3162 3162 3163 3164 3164 3165 3166 3168 3169 3170 3170 3172 3173 3174 3175 3176 3177 3177 3178 3178 3179 3179 3179 3180 3180 3180 3180 3180 3180 3180 3180 3180 3180 3180 3180 3180 3180 3180 3179 3179 3178 3178 3177 3177 3176
3132 3133 3133 3134 3136 3137 3137 3138 3139 3139 3140 3141 3141 3142 3142 3143 3143 3143 3143 3143 3144 3145 3145 3146 3147 3148 3148 3149 3149 3150 3151 3152 3153 3154 3156 3157 3158 3159 3159 3160 3161 3161 3162 3162 3163 3163 3164 3166 3167 3168 3168 3169 3170 3171 3173 3174 3175 3176 3176 3177 3177 3178 3178 3178 3179 3179 3179 3179 3179 3179 3178 3179 3179 3179 3179 3179 3179 3179 3179 3178 3178 3177 3177 3176 3176
3130 3131 3131 3132 3133 3134 3135 3136 3137 3138 3138 3139 3139 3140 3140 3140 3141 3141 3141 3142 3143 3144 3144 3144 3145 3146 3147 3147 3148 3148 3149 3149 3150 3152 3153 3154 3156 3157 3157 3158 3159 3160 3160 3161 3161 3162 3163 3164 3164 3165 3166 3167 3168 3169 3170 3171 3173 3173 3174 3175 3175 3176 3176 3177 3177 3177 3177 3177 3177 3177 3177 3177 3177 3177 3177 3177 3178 3178 3177 3177 3177 3176 3176 3175 3175
3128 3129 3129 3130 3131 3132 3133 3134 3135 3135 3136 3137 3137 3138 3138 3138 3138 3138 3139 3140 3141 3142 3142 3142 3143 3144 3145 3146 3146 3147 3147 3147 3148 3149 3150 3151 3153 3154 3155 3156 3157 3158 3159 3160 3160 3160 3161 3162 3163 3164 3164 3165 3166 3167 3168 3169 3170 3171 3172 3173 3173 3174 3174 3175 3175 3175 3176 3176 3175 3175 3176 3176 3175 3176 3176 3176 3176 3176 3176 3176 3175 3175 3175 3174 3174
3127 3128 3128 3128 3129 3130 3131 3132 3133 3133 3134 3134 3134 3135 3136 3136 3136 3136 3137 3138 3139 3139 3140 3141 3141 3142 3143 3144 3145 3146 3146 3145 3145 3146 3147 3148 3150 3152 3153 3154 3155 3156 3157 3158 3159 3159 3159 3160 3161 3162 3163 3163 3164 3165 3166 3167 3168 3169 3170 3170 3171 3171 3172 3172 3173 3173 3174 3174 3174 3174 3174 3174 3174 3174 3174 3174 3174 3174 3174 3174 3174 3173 3173 3173 3173
3125 3126 3126 3127 3127 3129 3129 3129 3130 3131 3132 3132 3132 3132 3133 3133 3133 3134 3135 3136 3136 3136 3137 3139 3139 3141 3141 3142 3143 3143 3144 3144 3143 3144 3145 3146 3147 3149 3150 3151 3152 3154 3155 3156 3157 3157 3158 3158 3159 3160 3160 3161 3162 3163 3164 3165 3166 3167 3168 3168 3168 3169 3169 3170 3170 3171 3171 3171 3172 3172 3172 3172 3172 3172 3172 3172 3172 3172 3172 3172 3172 3172 3171 3171 3171
3124 3124 3125 3125 3126 3128 3128 3128 3128 3130 3131 3131 3131 3131 3130 3131 3132 3133 3133 3134 3135 3134 3135 3136 3137 3138 3139 3140 3141 3141 3141 3141 3142 3142 3142 3144 3145 3147 3148 3149 3150 3152 3152 3153 3155 3155 3156 3156 3157 3158 3158 3159 3159 3160 3161 3162 3163 3164 3165 3165 3166 3166 3167 3167 3168 3168 3169 3169 3170 3170 3170 3170 3170 3170 3170 3170 3170 3170 3170 3170 3170 3170 3169 3169 3169
3123 3124 3124 3124 3125 3125 3126 3126 3127 3128 3129 3130 3130 3129 3128 3129 3130 3132 3132 3132 3133 3133 3133 3134 3135 3136 3137 3138 3138 3138 3138 3138 3140 3140 3140 3141 3143 3145 3145 3146 3148 3148 3149 3151 3153 3153 3154 3155 3155 3155 3156 3157 3157 3157 3158 3159 3160 3161 3162 3162 3163 3164 3164 3165 3165 3166 3166 3167 3167 3167 3168 3168 3168 3168 3168 3168 3168 3167 3167 3167 3167 3167 3167 3167 3167
3122 3123 3123 3123 3124 3124 3124 3125 3125 3126 3127 3127 3128 3128 3128 3128 3129 3129 3130 3130 3131 3131 3132 3133 3134 3135 3136 3137 3137 3136 3136 3135 3136 3137 3139 3140 3141 3142 3142 3144 3146 3146 3148 3150 3151 3152 3153 3153 3153 3153 3154 3155 3155 3155 3156 3156 3157 3158 3159 3159 3160 3161 3161 3162 3162 3163 3164 3164 3165 3165 3165 3165 3166 3166 3166 3165 3165 3165 3165 3165 3164 3164 3164 3164 3164
3121 3122 3122 3122 3122 3123 3123 3124 3124 3125 3125 3125 3126 3126 3127 3127 3127 3127 3128 3128 3128 3129 3131 3132 3133 3134 3134 3135 3135 3135 3135 3134 3134 3136 3137 3138 3139 3140 3140 3142 3143 3144 3145 3146 3147 3149 3149 3150 3150 3151 3151 3152 3153 3153 3153 3154 3154 3155 3155 3156 3157 3158 3158 3159 3159 3160 3161 3161 3162 3162 3163 3163 3163 3164 3164 3163 3163 3163 3162 3162 3162 3162 3161 3161 3162
3121 3121 3121 3121 3121 3122 3122 3123 3123 3123 3124 3124 3124 3124 3125 3125 3125 3125 3126 3127 3127 3128 3131 3132 3132 3133 3133 3133 3134 3134 3134 3134 3135 3135 3136 3136 3137 3137 3138 3139 3139 3140 3141 3142 3144 3145 3146 3147 3147 3148 3149 3149 3150 3151 3151 3152 3152 3152 3152 3153 3154 3155 3155 3156 3157 3158 3158 3159 3159 3160 3160 3160 3160 3161 3161 3161 3160 3160 3160 3160 3159 3159 3159 3159 3159
3120 3120 3120 3120 3120 3121 3121 3122 3122 3122 3122 3123 3123 3123 3123 3123 3124 3124 3125 3126 3126 3127 3129 3131 3131 3131 3131 3131 3132 3132 3133 3134 3134 3134 3135 3136 3136 3136 3136 3137 3137 3138 3139 3140 3141 3142 3143 3144 3143 3143 3145 3146 3147 3148 3149 3150 3150 3150 3150 3150 3151 3152 3153 3153 3154 3155 3155 3156 3156 3156 3157 3157 3158 3158 3158 3158 3158 3157 3157 3157 3157 3157 3156 3156 3156
3119 3120 3120 3120 3120 3120 3120 3121 3121 3121 3121 3121 3122 3122 3122 3122 3123 3123 3124 3124 3125 3126 3127 3128 3128 3129 3128 3129 3130 3131 3131 3132 3133 3134 3134 3135 3135 3135 3135 3135 3136 3136 3137 3138 3139 3140 3140 3141 3141 3140 3140 3142 3144 3146 3147 3148 3148 3148 3148 3149 3150 3150 3150 3151 3152 3152 3153 3153 3153 3153 3153 3154 3155 3155 3154 3155 3155 3155 3154 3154 3154 3154 3154 3154 3154
3119 3119 3119 3119 3119 3119 3120 3120 3120 3120 3121 3121 3121 3121 3121 3121 3121 3122 3122 3123 3123 3124 3125 3126 3126 3126 3126 3127 3128 3129 3129 3130 3131 3132 3133 3133 3133 3133 3133 3133 3134 3134 3135 3135 3136 3137 3138 3139 3140 3140 3138 3139 3141 3142 3143 3144 3145 3146 3146 3147 3148 3148 3148 3148 3149 3150 3150 3151 3151 3151 3150 3151 3152 3152 3152 3152 3152 3152 3152 3152 3151 3151 3151 3151 3151
3118 3118 3118 3118 3118 3119 3119 3119 3119 3120 3120 3120 3120 3120 3120 3120 3121 3121 3121 3121 3122 3123 3123 3124 3124 3124 3125 3126 3127 3127 3128 3129 3130 3130 3131 3131 3131 3131 3131 3131 3131 3132 3133 3133 3134 3135 3135 3136 3137 3138 3137 3138 3138 3139 3139 3141 3143 3143 3143 3145 3146 3146 3146 3146 3147 3147 3148 3148 3149 3149 3148 3148 3149 3150 3150 3150 3150 3150 3150 3149 3149 3149 3149 3149 3149
3117 3117 3117 3117 3118 3118 3118 3118 3119 3119 3119 3119 3119 3120 3120 3120 3120 3120 3120 3121 3121 3121 3122 3122 3122 3123 3123 3124 3125 3126 3126 3127 3127 3128 3129 3129 3128 3128 3129 3129 3129 3130 3130 3131 3131 3132 3133 3135 3135 3135 3136 3136 3137 3137 3137 3139 3140 3140 3141 3143 3144 3144 3144 3144 3144 3145 3145 3146 3146 3146 3146 3146 3146 3147 3148 3148 3148 3148 3148 3148 3147 3147 3147 3147 3147
3117 3117 3117 3117 3117 3117 3117 3117 3118 3118 3118 3118 3118 3119 3119 3119 3119 3120 3120 3120 3120 3120 3121 3121 3121 3121 3122 3122 3123 3124 3124 3125 3125 3125 3126 3126 3126 3126 3126 3127 3127 3128 3128 3128 3129 3130 3131 3132 3133 3134 3134 3135 3135 3136 3136 3137 3137 3137 3139 3140 3140 3141 3141 3142 3142 3142 3143 3143 3144 3144 3144 3144 3144 3144 3145 3146 3146 3146 3146 3146 3146 3146 3146 3145 3145
3117 3117 3116 3116 3116 3116 3116 3117 3117 3117 3118 3118 3118 3118 3118 3119 3119 3119 3119 3120 3120 3120 3120 3120 3120 3121 3121 3121 3121 3122 3123 3123 3123 3124 3124 3124 3124 3124 3124 3125 3125 3126 3126 3126 3127 3128 3129 3130 3130 3131 3132 3132 3133 3133 3134 3134 3134 3134 3135 3136 3136 3138 3138 3139 3139 3140 3140 3141 3141 3141 3141 3141 3142 3142 3142 3143 3143 3143 3144 3144 3145 3145 3144 3144 3144
3117 3117 3117 3116 3116 3116 3116 3116 3117 3117 3117 3117 3118 3118 3118 3118 3119 3119 3119 3119 3120 3120 3120 3120 3120 3120 3121 3121 3121 3121 3121 3122 3122 3122 3122 3122 3122 3122 3123 3123 3123 3124 3124 3125 3125 3126 3127 3128 3128 3128 3129 3130 3131 3131 3131 3132 3131 3131 3132 3132 3133 3134 3135 3136 3136 3136 3137 3137 3137 3138 3138 3138 3138 3139 3139 3140 3140 3141 3141 3141 3142 3143 3143 3142 3142
3118 3117 3117 3117 3117 3117 3117 3117 3117 3117 3117 3117 3117 3118 3118 3118 3118 3118 3119 3119 3119 3119 3120 3120 3120 3120 3120 3120 3120 3121 3121 3121 3121 3121 3121 3121 3121 3121 3121 3121 3122 3122 3122 3123 3124 3125 3125 3126 3126 3127 3128 3129 3129 3129 3129 3129 3128 3128 3129 3130 3130 3131 3131 3132 3132 3133 3133 3133 3134 3134 3135 3135 3135 3135 3136 3137 3137 3138 3138 3139 3139 3140 3140 3140 3140
3118 3118 3117 3118 3118 3117 3117 3117 3117 3117 3117 3117 3117 3118 3117 3117 3117 3117 3118 3118 3118 3119 3119 3119 3119 3119 3120 3120 3120 3120 3120 3120 3120 3120 3120 3120 3120 3120 3120 3120 3121 3121 3121 3122 3122 3123 3123 3123 3124 3125 3126 3127 3127 3126 3126 3126 3125 3125 3127 3127 3127 3128 3128 3128 3129 3129 3130 3130 3130 3131 3131 3131 3132 3132 3133 3133 3134 3135 3136 3136 3137 3137 3138 3138 3138
3118 3118 3118 3118 3118 3118 3118 3118 3118 3118 3118 3118 3118 3118 3118 3117 3117 3117 3117 3117 3117 3118 3118 3118 3118 3118 3118 3118 3118 3119 3119 3119 3119 3119 3119 3119 3119 3119 3119 3119 3119 3120 3120 3120 3121 3121 3121 3122 3122 3123 3123 3123 3123 3123 3123 3123 3122 3123 3124 3124 3124 3124 3125 3125 3126 3126 3126 3126 3127 3127 3128 3128 3128 3129 3129 3130 3131 3131 3132 3133 3134 3135 3135 3136 3135
3118 3118 3118 3118 3118 3118 3118 3118 3118 3118 3118 3118 3118 3118 3118 3118 3117 3117 3117 3117 3117 3117 3117 3117 3117 3117 3117 3117 3118 3117 3117 3118 3117 3117 3117 3117 3117 3117 3117 3117 3117 3118 3118 3119 3119 3120 3120 3120 3120 3120 3120 3120 3120 3120 3120 3121 3121 3121 3122 3121 3121 3121 3121 3122 3122 3122 3123 3123 3123 3124 3124 3125 3125 3125 3126 3126 3127 3128 3129 3130 3130 3131 3132 3133 3133
3117 3117 3118 3118 3118 3118 3118 3118 3118 3118 3118 3118 3118 3118 3118 3118 3117 3117 3117 3117 3116 3116 3116 3116 3116 3116 3117 3117 3117 3117 3117 3117 3117 3116 3116 3116 3116 3116 3116 3116 3116 3116 3117 3117 3118 3118 3118 3118 3118 3118 3118 3118 3118 3118 3118 3118 3118 3119 3119 3119 3119 3119 3118 3119 3119 3119 3120 3120 3120 3121 3121 3122 3122 3122 3122 3122 3123 3124 3125 3126 3127 3128 3128 3129 3130
3115 3116 3117 3117 3118 3118 3118 3118 3118 3118 3118 3118 3118 3118 3118 3117 3117 3117 3117 3117 3116 3116 3115 3115 3115 3115 3115 3115 3116 3116 3116 3116 3116 3116 3115 3115 3115 3115 3115 3115 3115 3115 3115 3115 3116 3116 3116 3116 3117 3116 3116 3116 3115 3115 3115 3115 3115 3116 3116 3116 3116 3115 3115 3116 3116 3116 3116 3116 3117 3117 3118 3118 3119 3119 3119 3119 3119 3120 3120 3121 3123 3124 3124 3125 3126
3114 3114 3115 3116 3116 3117 3117 3117 3117 3117 3117 3117 3118 3118 3117 3117 3117 3117 3117 3116 3116 3116 3115 3115 3115 3114 3114 3114 3114 3114 3114 3114 3114 3115 3115 3114 3114 3114 3114 3114 3113 3113 3113 3113 3114 3114 3114 3114 3114 3114 3114 3113 3113 3113 3112 3112 3112 3112 3112 3112 3112 3112 3112 3112 3112 3113 3113 3113 3114 3114 3115 3115 3115 3115 3115 3115 3115 3115 3116 3117 3118 3119 3120 3121 3122
3111 3112 3113 3114 3114 3115 3116 3116 3116 3116 3116 3116 3116 3117 3117 3117 3116 3116 3116 3116 3116 3116 3116 3115 3115 3114 3114 3114 3114 3113 3113 3113 3113 3113 3113 3113 3113 3113 3113 3112 3112 3111 3111 3110 3111 3111 3111 3111 3112 3112 3111 3111 3111 3110 3110 3110 3110 3109 3109 3109 3109 3109 3109 3109 3109 3109 3109 3110 3110 3111 3111 3111 3111 3111 3111 3111 3111 3112 3112 3112 3113 3115 3116 3116 3117
3108 3109 3110 3111 3112 3113 3113 3114 3115 3115 3115 3115 3115 3115 3115 3115 3115 3115 3115 3115 3115 3115 3115 3115 3114 3114 3114 3113 3113 3113 3112 3112 3112 3111 3111 3111 3111 3111 3111 3111 3110 3110 3109 3108 3108 3108 3108 3108 3108 3108 3108 3108 3108 3108 3107 3107 3107 3107 3106 3106 3106 3106 3106 3106 3106 3106 3106 3107 3107 3107 3108 3108 3108 3108 3107 3107 3108 3108 3108 3108 3109 3110 3111 3112 3112
3106 3107 3107 3108 3109 3110 3111 3111 3112 3113 3113 3113 3113 3113 3114 3114 3113 3113 3113 3113 3113 3113 3113 3113 3113 3113 3113 3112 3112 3112 3111 3111 3110 3110 3109 3109 3109 3109 3109 3108 3108 3108 3107 3106 3106 3105 3105 3105 3106 3105 3105 3105 3105 3105 3105 3104 3104 3103 3103 3103 3103 3103 3103 3103 3103 3103 3103 3104 3104 3104 3104 3104 3104 3104 3104 3104 3104 3104 3104 3104 3104 3105 3106 3107 3108
3104 3104 3105 3105 3105 3106 3107 3108 3109 3110 3111 3111 3112 3112 3112 3112 3112 3111 3111 3111 3111 3111 3111 3110 3110 3110 3110 3110 3110 3110 3109 3109 3109 3108 3107 3107 3107 3106 3106 3106 3105 3105 3104 3104 3103 3103 3102 3103 3103 3103 3102 3102 3102 3102 3101 3101 3101 3100 3100 3100 3100 3100 3100 3100 3100 3099 3099 3100 3100 3100 3100 3100 3100 3100 3100 3100 3100 3100 3100 3100 3100 3100 3101 3102 3103
3102 3102 3103 3103 3102 3103 3103 3105 3106 3107 3108 3108 3109 3109 3109 3110 3109 3109 3109 3109 3109 3109 3108 3108 3108 3108 3107 3107 3107 3107 3107 3106 3106 3106 3105 3105 3104 3104 3103 3103 3102 3102 3101 3101 3100 3100 3099 3099 3099 3100 3100 3099 3098 3098 3098 3098 3097 3097 3097 3096 3096 3096 3097 3097 3096 3096 3096 3096 3096 3095 3096 3096 3096 3096 3096 3096 3096 3096 3096 3096 3096 3096 3096 3097 3097
3099 3099 3100 3100 3100 3099 3100 3101 3102 3103 3105 3105 3106 3106 3106 3107 3107 3106 3106 3107 3106 3106 3106 3106 3106 3105 3105 3104 3104 3103 3103 3103 3103 3102 3102 3101 3101 3101 3100 3100 3099 3099 3098 3098 3097 3096 3096 3095 3095 3096 3096 3096 3096 3095 3095 3095 3094 3094 3093 3093 3093 3093 3093 3093 3093 3092 3092 3092 3092 3091 3091 3092 3092 3092 3092 3092 3092 3092 3092 3092 3092 3092 3092 3092 3093
3096 3096 3097 3097 3098 3097 3097 3097 3097 3099 3100 3101 3102 3102 3103 3103 3104 3104 3103 3103 3103 3103 3103 3103 3102 3102 3102 3101 3100 3100 3099 3099 3099 3098 3098 3098 3097 3097 3096 3096 3096 3096 3095 3095 3094 3093 3092 3092 3091 3091 3091 3092 3092 3092 3092 3091 3091 3090 3090 3089 3089 3089 3089 3088 3088 3088 3087 3087 3087 3086 3086 3086 3087 3088 3088 3087 3087 3087 3087 3087 3088 3088 3088 3088 3089
3094 3094 3094 3094 3094 3094 3093 3093 3094 3094 3095 3096 3097 3097 3098 3099 3100 3100 3100 3100 3100 3100 3100 3099 3099 3099 3098 3097 3097 3096 3096 3095 3094 3094 3094 3093 3093 3093 3092 3092 3092 3092 3091 3091 3090 3089 3089 3088 3087 3087 3087 3087 3087 3088 3087 3087 3087 3087 3086 3085 3085 3085 3085 3085 3084 3084 3083 3082 3082 3082 3081 3081 3081 3082 3083 3083 3082 3082 3082 3082 3082 3083 3083 3084 3084
3091 3091 3091 3090 3090 3089 3089 3090 3090 3090 3091 3091 3091 3093 3094 3095 3096 3096 3096 3097 3096 3096 3096 3096 3095 3095 3094 3093 3093 3093 3092 3091 3090 3089 3089 3088 3088 3088 3088 3088 3087 3087 3087 3087 3086 3085 3084 3084 3083 3083 3083 3082 3083 3083 3083 3082 3082 3082 3082 3081 3081 3081 3081 3081 3081 3081 3080 3079 3078 3078 3078 3077 3076 3076 3076 3077 3078 3078 3077 3077 3077 3078 3079 3079 3080
3088 3088 3087 3086 3085 3085 3086 3086 3087 3087 3087 3086 3087 3090 3091 3092 3092 3092 3092 3092 3092 3092 3092 3092 3091 3091 3090 3090 3089 3088 3088 3087 3086 3085 3084 3083 3083 3083 3083 3083 3082 3082 3082 3082 3082 3082 3081 3080 3079 3079 3078 3078 3079 3079 3078 3077 3077 3077 3077 3077 3076 3076 3076 3076 3077 3077 3077 3076 3074 3074 3074 3074 3074 3072 3072 3072 3072 3072 3073 3072 3073 3073 3074 3074 3075
3085 3084 3083 3083 3082 3081 3082 3082 3083 3084 3083 3082 3084 3086 3088 3088 3088 3087 3087 3088 3088 3088 3089 3088 3087 3086 3086 3085 3084 3083 3083 3082 3082 3081 3080 3079 3078 3078 3078 3078 3077 3077 3077 3077 3077 3077 3076 3075 3075 3074 3074 3074 3075 3074 3073 3072 3072 3071 3071 3071 3071 3071 3071 3071 3071 3072 3072 3071 3070 3069 3069 3070 3070 3069 3068 3068 3068 3067 3066 3067 3068 3069 3070 3070 3070
3081 3081 3081 3080 3080 3079 3078 3078 3079 3079 3079 3080 3081 3082 3084 3085 3084 3083 3083 3083 3083 3084 3084 3084 3084 3082 3081 3081 3080 3078 3078 3077 3076 3075 3074 3074 3073 3073 3073 3073 3073 3072 3072 3071 3071 3071 3071 3070 3070 3070 3069 3069 3069 3069 3068 3068 3067 3066 3065 3065 3065 3065 3065 3065 3065 3066 3066 3066 3064 3063 3063 3064 3065 3064 3064 3064 3064 3063 3061 3061 3062 3064 3065 3066 3065
3076 3077 3077 3077 3077 3076 3075 3076 3075 3074 3075 3077 3078 3078 3079 3080 3080 3079 3078 3077 3078 3080 3080 3080 3080 3079 3078 3077 3075 3074 3073 3072 3071 3070 3069 3069 3068 3067 3067 3067 3067 3067 3067 3066 3066 3065 3065 3064 3064 3064 3064 3063 3062 3062 3063 3062 3061 3060 3060 3059 3059 3059 3059 3059 3059 3059 3060 3060 3059 3057 3057 3058 3059 3059 3058 3059 3060 3059 3057 3056 3057 3059 3060 3061 3060
3071 3072 3073 3073 3073 3072 3071 3072 3070 3069 3071 3074 3074 3074 3075 3075 3074 3075 3073 3072 3074 3076 3075 3075 3075 3074 3074 3073 3071 3070 3069 3067 3066 3065 3064 3064 3063 3062 3061 3061 3060 3060 3060 3060 3060 3060 3060 3060 3059 3058 3058 3057 3056 3056 3056 3056 3055 3054 3053 3053 3052 3052 3052 3053 3053 3053 3053 3054 3053 3051 3051 3052 3053 3052 3052 3052 3054 3053 3051 3049 3051 3054 3055 3055 3055
3067 3067 3068 3068 3068 3068 3068 3067 3065 3064 3067 3070 3070 3070 3070 3069 3070 3070 3068 3068 3070 3071 3070 3070 3070 3070 3069 3068 3067 3066 3065 3064 3062 3060 3059 3059 3058 3057 3056 3055 3055 3054 3053 3053 3053 3053 3054 3054 3053 3052 3052 3051 3050 3050 3050 3050 3049 3048 3047 3046 3045 3045 3045 3045 3045 3046 3047 3047 3047 3044 3043 3045 3046 3046 3045 3046 3047 3047 3045 3042 3043 3047 3049 3049 3049
3064 3064 3064 3063 3063 3063 3063 3063 3060 3060 3063 3066 3065 3065 3065 3064 3065 3064 3064 3065 3066 3066 3066 3066 3066 3065 3064 3063 3062 3062 3061 3059 3057 3056 3055 3055 3054 3053 3051 3050 3049 3048 3048 3048 3047 3047 3047 3047 3046 3045 3045 3045 3044 3044 3044 3043 3043 3042 3041 3040 3039 3038 3038 3037 3037 3038 3039 3040 3040 3038 3037 3037 3038 3038 3039 3039 3039 3040 3039 3036 3036 3038 3041 3043 3043
3060 3060 3060 3060 3060 3059 3059 3058 3056 3057 3060 3061 3060 3060 3060 3060 3060 3060 3060 3061 3061 3061 3061 3061 3061 3060 3059 3059 3058 3057 3056 3054 3052 3051 3051 3051 3050 3048 3046 3045 3044 3042 3042 3042 3041 3041 3040 3039 3038 3038 3038 3038 3038 3038 3038 3037 3036 3035 3034 3034 3033 3033 3032 3031 3030 3030 3031 3031 3031 3031 3031 3032 3032 3031 3032 3032 3032 3033 3032 3030 3029 3030 3032 3035 3037
3056 3056 3055 3055 3056 3055 3055 3053 3052 3053 3056 3056 3055 3055 3056 3056 3056 3056 3057 3057 3057 3057 3056 3056 3055 3055 3055 3054 3054 3053 3051 3049 3048 3046 3046 3046 3045 3043 3041 3039 3038 3037 3036 3035 3035 3034 3032 3031 3031 3030 3031 3031 3032 3032 3031 3031 3030 3028 3027 3027 3027 3027 3026 3025 3024 3024 3024 3024 3024 3023 3023 3025 3025 3024 3025 3025 3024 3025 3025 3024 3023 3023 3024 3027 3030
3052 3052 3051 3051 3052 3051 3050 3049 3048 3050 3051 3051 3051 3051 3052 3052 3053 3053 3054 3053 3053 3052 3052 3051 3051 3051 3050 3049 3048 3047 3046 3044 3043 3042 3041 3041 3039 3038 3036 3035 3033 3032 3030 3029 3028 3027 3026 3025 3024 3023 3023 3023 3023 3024 3024 3024 3023 3022 3021 3020 3019 3019 3019 3019 3018 3017 3017 3018 3018 3017 3016 3018 3018 3017 3017 3017 3017 3018 3018 3017 3017 3016 3015 3018 3022